Weather History for KBVY - January, 2012

Change the Weather History Date:

Wednesday, January 11, 2012

  Actual Average Record
Temperature  
Mean Temperature 30 °F -  
Max Temperature 37 °F 31 °F 32 °F (2015)
Min Temperature 24 °F 16 °F 12 °F (2015)
Degree Days  
Heating Degree Days 34    
Moisture  
Dew Point 22 °F    
Average Humidity 66    
Maximum Humidity 88    
Minimum Humidity 46    
Precipitation  
Precipitation 0.00 in - - ()
Sea Level Pressure  
Sea Level Pressure 30.08 in    
Wind  
Wind Speed 5 mph (ENE)    
Max Wind Speed 13 mph    
Max Gust Speed 20 mph    
Visibility 10 miles    
Events      
Averages and records for this station are not official NWS values.
T = Trace of Precipitation, MM = Missing Value Source: NWS Daily Summary

Daily Weather History Graph

Daily Weather History Graph

Search for Another Location

Airport or City:

Trip Planner

Search our weather history database for the weather conditions in past years. The results will help you decide how hot, cold, wet, or windy it might be!

Date:

Astronomy

Jan. 11, 2012 Rise Set
Actual Time 7:12 AM EST 4:30 PM EST
Civil Twilight 6:41 AM EST 5:02 PM EST
Nautical Twilight 6:06 AM EST 5:37 PM EST
Astronomical Twilight 5:32 AM EST 6:11 PM EST
Moon 7:30 PM EST (1/11) 8:19 AM EST (1/11)
Length of Visible Light 10h 20m
Length of Day
9h 17m
Waning Gibbous, 93% of the Moon is Illuminated
Jan 11
Waning Gibbous
Jan 16
Last Quarter
Jan 23
New
Jan 30
First Quarter
Feb 7
Full

Hourly Weather History & Observations

Time (EST) Temp. Windchill Dew Point Humidity Pressure Visibility Wind Dir Wind Speed Gust Speed Precip Events Conditions
12:53 AM 30.9 °F 27.5 °F 23.0 °F 72% 29.95 in 10.0 mi NNW 3.5 mph - N/A   Clear
1:53 AM 27.0 °F - 21.9 °F 81% 29.96 in 10.0 mi Calm Calm - N/A   Clear
2:53 AM 25.0 °F 20.7 °F 21.9 °F 88% 29.97 in 10.0 mi North 3.5 mph - N/A   Clear
3:53 AM 27.0 °F 23.0 °F 19.9 °F 75% 29.99 in 10.0 mi NNW 3.5 mph - N/A   Clear
4:53 AM 26.6 °F 22.6 °F 19.4 °F 74% 30.03 in 10.0 mi NNW 3.5 mph - N/A   Clear
5:53 AM 25.0 °F 19.3 °F 19.0 °F 78% 30.04 in 10.0 mi NNW 4.6 mph - N/A   Clear
6:53 AM 24.1 °F 16.0 °F 17.1 °F 75% 30.06 in 10.0 mi NNW 6.9 mph - N/A   Partly Cloudy
7:53 AM 28.0 °F - 18.0 °F 66% 30.10 in 10.0 mi Calm Calm - N/A   Scattered Clouds
8:53 AM 30.0 °F 21.7 °F 18.0 °F 61% 30.12 in 10.0 mi North 9.2 mph - N/A   Partly Cloudy
9:53 AM 33.1 °F 26.9 °F 17.1 °F 52% 30.13 in 10.0 mi North 6.9 mph - N/A   Partly Cloudy
10:53 AM 35.1 °F 28.6 °F 17.1 °F 48% 30.11 in 10.0 mi ENE 8.1 mph - N/A   Mostly Cloudy
11:53 AM 36.0 °F - 17.1 °F 46% 30.11 in 10.0 mi Calm Calm - N/A   Overcast
12:53 PM 37.0 °F 34.5 °F 18.0 °F 46% 30.09 in 10.0 mi Variable 3.5 mph - N/A   Mostly Cloudy
1:53 PM 37.0 °F 31.0 °F 21.9 °F 54% 30.09 in 10.0 mi SE 8.1 mph - N/A   Overcast
2:53 PM 36.0 °F 31.1 °F 23.0 °F 59% 30.11 in 10.0 mi SE 5.8 mph - N/A   Overcast
3:53 PM 36.0 °F 29.6 °F 23.0 °F 59% 30.12 in 10.0 mi East 8.1 mph - N/A   Overcast
4:53 PM 34.0 °F 28.8 °F 21.9 °F 61% 30.12 in 10.0 mi ENE 5.8 mph - N/A   Overcast
5:53 PM 33.1 °F 28.7 °F 21.9 °F 64% 30.11 in 10.0 mi ENE 4.6 mph - N/A   Mostly Cloudy
6:53 PM 32.0 °F 28.7 °F 21.9 °F 66% 30.11 in 10.0 mi ENE 3.5 mph - N/A   Scattered Clouds
7:06 PM 32.0 °F 27.5 °F 23.0 °F 69% 30.11 in 10.0 mi ENE 4.6 mph - N/A   Mostly Cloudy
7:53 PM 35.1 °F 27.4 °F 27.0 °F 72% 30.12 in 10.0 mi ESE 10.4 mph - N/A   Overcast
8:53 PM 37.0 °F 29.8 °F 28.0 °F 70% 30.11 in 10.0 mi ESE 10.4 mph - N/A   Overcast
9:53 PM 37.0 °F 28.9 °F 28.9 °F 73% 30.10 in 10.0 mi ESE 12.7 mph - N/A   Overcast
10:53 PM 37.0 °F 30.4 °F 28.9 °F 73% 30.09 in 10.0 mi SE 9.2 mph 19.6 mph N/A   Overcast
11:53 PM 37.9 °F 30.9 °F 28.9 °F 70% 30.07 in 10.0 mi ESE 10.4 mph - N/A   Overcast